{"data":{"norad_id":65056,"epoch":"2026-05-25T04:56:18.529728Z","epoch_age_seconds":47337,"freshness":"FRESH","line1":"1 65056U 25165A   26145.20577002  .00004168  00000+0  29275-3 0  9998","line2":"2 65056  97.4492 222.2759 0000929 130.2900 229.8408 15.05651552 46304","mean_motion":15.05651552,"eccentricity":9.29e-5,"inclination_deg":97.4492,"raan_deg":222.2759,"arg_perigee_deg":130.29,"mean_anomaly_deg":229.8408,"bstar":0.00029275,"rev_number":4630,"period_min":95.639658331784,"perigee_km":548.86281536582,"apogee_km":550.14997150832,"semimajor_km":6927.6433934371,"source":"CELESTRAK","updated_at":"2026-05-25T13:38:20.675312Z"}}